When you browse on this site, cookies collect data to enhance your experience and personalize the content and advertising you see.
Visit our Privacy Policy to learn more. By continuing to use the site, you agree to this use of cookies and data.
  • En España
  • Lista de países
  • Para 7 días
  • Temperatura del agua
  • Mapa Satelital
  • El tiempo en el mapa
  • Informadores
  • user-avatar
    Iniciar sesión

    Tiempo cada hora Bor

    Hoy, 18 Febrero, Lunes

    Tiempo Temperatura Precipitaciones Viento Presión Humedad
    00:00 +11°C° 0 mm 1 mps 769 mmHg 63%
    01:00 +10°C° 0 mm 1 mps 769 mmHg 62%
    02:00 +10°C° 0 mm 1 mps 769 mmHg 62%
    03:00 +10°C° 0 mm 1 mps 769 mmHg 61%
    04:00 +10°C° 0 mm 1 mps 769 mmHg 60%
    05:00 +10°C° 0 mm 1 mps 769 mmHg 60%
    06:00 +9°C° 0 mm 1 mps 769 mmHg 59%
    07:00 +9°C° 0 mm 1 mps 769 mmHg 59%
    08:00 +11°C° 0 mm 1 mps 768 mmHg 54%
    09:00 +12°C° 0 mm 1 mps 768 mmHg 50%
    10:00 +14°C° 0 mm 1 mps 768 mmHg 45%
    11:00 +15°C° 0 mm 1 mps 768 mmHg 45%
    12:00 +15°C° 0 mm 1 mps 767 mmHg 45%
    13:00 +16°C° 0 mm 1 mps 767 mmHg 45%
    14:00 +16°C° 0 mm 1 mps 767 mmHg 48%
    15:00 +15°C° 0 mm 1 mps 767 mmHg 52%
    16:00 +15°C° 0 mm 1 mps 767 mmHg 55%
    17:00 +14°C° 0 mm 1 mps 767 mmHg 60%
    18:00 +13°C° 0 mm 1 mps 767 mmHg 65%
    19:00 +11°C° 0 mm 0 mps 767 mmHg 70%
    20:00 +12°C° 0 mm 1 mps 767 mmHg 70%
    21:00 +11°C° 0 mm 1 mps 767 mmHg 70%
    22:00 +11°C° 0 mm 1 mps 767 mmHg 70%
    23:00 +11°C° 0 mm 1 mps 767 mmHg 70%

    Mañana, 19 Febrero, Martes

    Tiempo Temperatura Precipitaciones Viento Presión Humedad
    00:00 +11°C° 0 mm 1 mps 768 mmHg 69%
    01:00 +10°C° 0 mm 1 mps 768 mmHg 69%
    02:00 +10°C° 0 mm 1 mps 767 mmHg 68%
    03:00 +9°C° 0 mm 2 mps 767 mmHg 68%
    04:00 +9°C° 0 mm 2 mps 767 mmHg 67%
    05:00 +8°C° 0 mm 2 mps 767 mmHg 66%
    06:00 +8°C° 0 mm 2 mps 767 mmHg 66%
    07:00 +8°C° 0 mm 2 mps 767 mmHg 65%
    08:00 +10°C° 0 mm 2 mps 767 mmHg 60%
    09:00 +12°C° 0 mm 2 mps 767 mmHg 56%
    10:00 +13°C° 0 mm 2 mps 767 mmHg 52%
    11:00 +14°C° 0 mm 2 mps 766 mmHg 53%
    12:00 +14°C° 0 mm 2 mps 766 mmHg 54%
    13:00 +15°C° 0 mm 2 mps 766 mmHg 55%
    14:00 +15°C° 0 mm 1 mps 766 mmHg 58%
    15:00 +14°C° 0 mm 1 mps 765 mmHg 60%
    16:00 +14°C° 0 mm 1 mps 765 mmHg 63%
    17:00 +13°C° 0 mm 1 mps 766 mmHg 68%
    18:00 +12°C° 0 mm 1 mps 766 mmHg 72%
    19:00 +10°C° 0 mm 0 mps 766 mmHg 77%
    20:00 +11°C° 0 mm 1 mps 766 mmHg 77%
    21:00 +11°C° 0 mm 1 mps 767 mmHg 77%
    22:00 +11°C° 0 mm 1 mps 767 mmHg 78%
    23:00 +10°C° 0 mm 1 mps 767 mmHg 77%

    Pasado mañana, 20 Febrero, Miércoles

    Tiempo Temperatura Precipitaciones Viento Presión Humedad
    00:00 +9°C° 0 mm 2 mps 767 mmHg 77%
    01:00 +9°C° 0 mm 2 mps 767 mmHg 77%
    02:00 +9°C° 0 mm 2 mps 767 mmHg 76%
    03:00 +8°C° 0 mm 2 mps 767 mmHg 75%
    04:00 +8°C° 0 mm 2 mps 766 mmHg 75%
    05:00 +8°C° 0 mm 2 mps 767 mmHg 74%
    06:00 +8°C° 0 mm 2 mps 767 mmHg 74%
    07:00 +8°C° 0 mm 2 mps 767 mmHg 73%
    08:00 +9°C° 0 mm 2 mps 767 mmHg 69%
    09:00 +12°C° 0 mm 1 mps 767 mmHg 65%
    10:00 +13°C° 0 mm 1 mps 767 mmHg 61%
    11:00 +14°C° 0 mm 1 mps 767 mmHg 62%
    12:00 +14°C° 0 mm 1 mps 767 mmHg 63%
    13:00 +15°C° 0 mm 1 mps 767 mmHg 64%
    14:00 +14°C° 0 mm 2 mps 767 mmHg 66%
    15:00 +14°C° 0 mm 2 mps 767 mmHg 68%
    16:00 +14°C° 0 mm 2 mps 767 mmHg 71%
    17:00 +13°C° 0 mm 2 mps 767 mmHg 75%
    18:00 +13°C° 0 mm 2 mps 768 mmHg 80%
    19:00 +12°C° 0 mm 2 mps 768 mmHg 84%
    20:00 +12°C° 0 mm 2 mps 768 mmHg 83%
    21:00 +11°C° 0 mm 1 mps 769 mmHg 82%
    22:00 +11°C° 0 mm 1 mps 769 mmHg 80%
    23:00 +11°C° 0 mm 1 mps 769 mmHg 78%

    21 Febrero, Jueves

    Tiempo Temperatura Precipitaciones Viento Presión Humedad
    00:00 +11°C° 0 mm 1 mps 769 mmHg 75%
    01:00 +10°C° 0 mm 2 mps 769 mmHg 73%
    02:00 +9°C° 0 mm 2 mps 769 mmHg 72%
    03:00 +9°C° 0 mm 2 mps 769 mmHg 70%
    04:00 +9°C° 0 mm 2 mps 769 mmHg 69%
    05:00 +9°C° 0 mm 2 mps 769 mmHg 69%
    06:00 +9°C° 0 mm 2 mps 770 mmHg 69%
    07:00 +8°C° 0 mm 2 mps 770 mmHg 69%
    08:00 +10°C° 0 mm 2 mps 770 mmHg 63%
    09:00 +13°C° 0 mm 2 mps 770 mmHg 58%
    10:00 +14°C° 0 mm 1 mps 770 mmHg 52%
    11:00 +15°C° 0 mm 1 mps 770 mmHg 49%
    12:00 +16°C° 0 mm 1 mps 769 mmHg 46%
    13:00 +18°C° 0 mm 1 mps 769 mmHg 43%
    14:00 +16°C° 0 mm 2 mps 769 mmHg 48%
    15:00 +16°C° 0 mm 3 mps 769 mmHg 53%
    16:00 +14°C° 0 mm 3 mps 768 mmHg 57%
    17:00 +14°C° 0 mm 3 mps 769 mmHg 63%
    18:00 +13°C° 0 mm 3 mps 769 mmHg 68%
    19:00 +12°C° 0 mm 3 mps 769 mmHg 73%
    20:00 +11°C° 0 mm 3 mps 769 mmHg 72%
    21:00 +12°C° 0 mm 2 mps 770 mmHg 70%
    22:00 +12°C° 0 mm 2 mps 770 mmHg 68%
    23:00 +12°C° 0 mm 2 mps 770 mmHg 67%

    22 Febrero, Viernes

    Tiempo Temperatura Precipitaciones Viento Presión Humedad
    00:00 +10°C° 0 mm 2 mps 769 mmHg 65%
    01:00 +11°C° 0 mm 1 mps 769 mmHg 64%
    02:00 +11°C° 0 mm 1 mps 769 mmHg 62%
    03:00 +11°C° 0 mm 1 mps 769 mmHg 61%
    04:00 +11°C° 0 mm 1 mps 769 mmHg 60%
    05:00 +10°C° 0.1 mm 2 mps 769 mmHg 61%
    06:00 +10°C° 0.1 mm 2 mps 769 mmHg 62%
    07:00 +10°C° 0.1 mm 2 mps 769 mmHg 63%
    08:00 +12°C° 0 mm 2 mps 769 mmHg 61%
    09:00 +12°C° 0 mm 2 mps 769 mmHg 58%
    10:00 +13°C° 0 mm 2 mps 769 mmHg 55%
    11:00 +14°C° 0 mm 2 mps 769 mmHg 53%
    12:00 +15°C° 0 mm 2 mps 768 mmHg 50%
    13:00 +16°C° 0 mm 2 mps 768 mmHg 47%
    14:00 +16°C° 0 mm 2 mps 768 mmHg 48%
    15:00 +16°C° 0 mm 3 mps 768 mmHg 50%
    16:00 +16°C° 0 mm 3 mps 768 mmHg 51%
    17:00 +14°C° 0 mm 4 mps 768 mmHg 54%
    18:00 +13°C° 0 mm 4 mps 768 mmHg 57%
    19:00 +12°C° 0 mm 4 mps 769 mmHg 60%
    20:00 +12°C° 0 mm 4 mps 769 mmHg 61%
    21:00 +10°C° 0 mm 5 mps 769 mmHg 62%
    22:00 +10°C° 0 mm 5 mps 770 mmHg 63%
    23:00 +9°C° 0 mm 5 mps 770 mmHg 62%

    23 Febrero, Sábado

    Tiempo Temperatura Precipitaciones Viento Presión Humedad
    00:00 +9°C° 0 mm 5 mps 770 mmHg 62%
    01:00 +9°C° 0 mm 5 mps 771 mmHg 61%
    02:00 +8°C° 0 mm 5 mps 771 mmHg 60%
    03:00 +8°C° 0 mm 5 mps 771 mmHg 59%
    04:00 +8°C° 0 mm 5 mps 771 mmHg 58%
    05:00 +7°C° 0 mm 6 mps 772 mmHg 56%
    06:00 +7°C° 0 mm 6 mps 772 mmHg 54%
    07:00 +5°C° 0 mm 6 mps 773 mmHg 53%
    08:00 +8°C° 0 mm 6 mps 773 mmHg 49%
    09:00 +9°C° 0 mm 6 mps 773 mmHg 45%
    10:00 +10°C° 0 mm 7 mps 774 mmHg 42%
    11:00 +11°C° 0 mm 6 mps 774 mmHg 41%
    12:00 +13°C° 0 mm 6 mps 774 mmHg 40%
    13:00 +13°C° 0 mm 6 mps 774 mmHg 39%
    14:00 +13°C° 0 mm 6 mps 774 mmHg 40%
    15:00 +13°C° 0 mm 5 mps 774 mmHg 41%
    16:00 +13°C° 0 mm 5 mps 774 mmHg 42%
    17:00 +10°C° 0 mm 5 mps 774 mmHg 45%
    18:00 +9°C° 0 mm 5 mps 775 mmHg 48%
    19:00 +8°C° 0 mm 6 mps 775 mmHg 52%
    20:00 +8°C° 0 mm 5 mps 776 mmHg 53%
    21:00 +7°C° 0 mm 5 mps 776 mmHg 54%
    22:00 +7°C° 0 mm 5 mps 776 mmHg 56%
    23:00 +6°C° 0 mm 4 mps 776 mmHg 55%
    Mostrar más